Toronto City, Ontario

9:19 AM EDT on May 24, 2017 (GMT -0400)
Toronto City

Weather History for CXTO - November, 2012

Change the Weather History Date:

Thursday, November 1, 2012

  Actual Average (CYTZ) Record (CYTZ)
Temperature  
Mean Temperature 44 °F -  
Max Temperature 46 °F 48 °F 62 °F (2003)
Min Temperature 41 °F 38 °F 32 °F (2002)
Degree Days  
Heating Degree Days 21    
Moisture  
Dew Point 40 °F    
Average Humidity 87    
Maximum Humidity 97    
Minimum Humidity 74    
Precipitation  
Precipitation 0.08 in - - ()
Sea Level Pressure  
Sea Level Pressure 29.53 in    
Wind  
Wind Speed - ()    
Max Wind Speed -    
Max Gust Speed -    
Averages and records for this station are not official NWS values.
T = Trace of Precipitation, MM = Missing Value Source: Averaged Metar Reports

Daily Weather History Graph

Daily Weather History Graph

Search for Another Location

Airport or City:

Trip Planner

Search our weather history database for the weather conditions in past years. The results will help you decide how hot, cold, wet, or windy it might be!

Date:

Astronomy

Nov. 01, 2012 Rise Set
Actual Time 7:54 AM EDT 6:07 PM EDT
Civil Twilight 7:24 AM EDT 6:37 PM EDT
Nautical Twilight 6:50 AM EDT 7:11 PM EDT
Astronomical Twilight 6:16 AM EDT 7:44 PM EDT
Moon 7:59 PM EDT (11/1) 10:29 AM EDT (11/1)
Length of Visible Light 11h 13m
Length of Day
10h 13m
Waning Gibbous, 93% of the Moon is Illuminated
Nov 1
Waning Gibbous
Nov 6
Last Quarter
Nov 13
New
Nov 20
First Quarter
Nov 28
Full

Hourly Weather History & Observations

Time (EDT) Temp. Dew Point Humidity Pressure Visibility Wind Dir Wind Speed Gust Speed Precip Events Conditions
12:00 AM 45.5 °F 44.4 °F 96% 29.45 in - North - - N/A   Unknown
1:00 AM 45.1 °F 44.2 °F 97% 29.46 in - North - - 0.05 in   Unknown
2:00 AM 45 °F 44 °F 94% 29.46 in - Calm Calm - -  
2:00 AM 44.6 °F 43.9 °F 97% 29.46 in - North - - 0.05 in   Unknown
3:00 AM 44.2 °F 43.5 °F 97% 29.46 in - North - - 0.04 in   Unknown
4:00 AM 43.9 °F 43.0 °F 97% 29.46 in - North - - N/A   Unknown
5:00 AM 43.7 °F 41.9 °F 93% 29.47 in - North - - N/A   Unknown
6:00 AM 43.2 °F 40.5 °F 90% 29.48 in - North - - N/A   Unknown
7:00 AM 42.8 °F 39.7 °F 89% 29.49 in - North - - N/A   Unknown
8:00 AM 43 °F 40 °F 85% 29.50 in - Calm Calm - -  
8:00 AM 42.6 °F 39.9 °F 90% 29.50 in - North - - 0.03 in   Unknown
9:00 AM 43.2 °F 40.5 °F 90% 29.52 in - North - - N/A   Unknown
10:00 AM 43.7 °F 41.0 °F 90% 29.53 in - North - - 0.03 in   Unknown
11:00 AM 44.2 °F 40.8 °F 88% 29.54 in - North - - N/A   Unknown
12:00 PM 44.8 °F 40.8 °F 86% 29.54 in - North - - N/A   Unknown
1:00 PM 45.0 °F 39.7 °F 82% 29.54 in - North - - N/A   Unknown
2:00 PM 46 °F 40 °F 74% 29.53 in - Calm Calm - -  
2:00 PM 46.0 °F 40.5 °F 81% 29.53 in - North - - N/A   Unknown
3:00 PM 44.8 °F 40.6 °F 85% 29.54 in - North - - N/A   Unknown
4:00 PM 44.8 °F 39.7 °F 82% 29.55 in - North - - N/A   Unknown
5:00 PM 44.6 °F 38.8 °F 80% 29.57 in - North - - N/A   Unknown
6:00 PM 43.7 °F 38.3 °F 81% 29.59 in - North - - N/A   Unknown
7:00 PM 43.2 °F 38.3 °F 83% 29.61 in - North - - N/A   Unknown
8:00 PM 43 °F 38 °F 77% 29.62 in - Calm Calm - -  
8:00 PM 43.0 °F 38.3 °F 84% 29.62 in - North - - N/A   Unknown
9:00 PM 42.4 °F 38.5 °F 86% 29.63 in - North - - N/A   Unknown
10:00 PM 42.3 °F 38.3 °F 86% 29.64 in - North - - N/A   Unknown
11:00 PM 41.9 °F 36.1 °F 80% 29.64 in - North - - N/A   Unknown